Location: Bissell Cemetery
(39.8425°N, 89.5832°W)
Time: 00:13:57
(UTC+00:00)

Daily predictions for brighter satellites

Satellite Brightness Start Highest point End
(mag) Time Altitude Azimuth Time Altitude Azimuth Time Altitude Azimuth
Iridium 4 Rocket 3.5 00:20:08 10° SSE 00:24:49 56° E 00:29:59 10° N
ARGOS 4.2 00:21:02 10° ESE 00:25:22 26° ENE 00:29:44 10° NNE
Cosmos 1437 3.7 00:25:22 10° NNE 00:27:53 24° ENE 00:30:24 10° SE
SJ 16-02 2.4 00:25:48 10° SW 00:30:03 50° WNW 00:34:20 10° N
NOSS 8 (H) 4.3 00:27:47 10° SW 00:31:12 84° WNW 00:34:13 10° NNE
CZ-2C R/B 4.0 00:27:57 10° NE 00:31:39 18° E 00:35:23 10° SE
Milstar 3 Cent rocket 4.2 00:29:25 10° SSW 00:32:59 14° SSE 00:35:51 10° SE
SL-16 R/B 3.8 00:28:32 10° NW 00:33:46 39° WSW 00:38:57 10° S
Cosmos 1939 Rocket 3.6 00:29:45 10° S 00:33:48 61° W 00:37:55 10° NNW
Cosmos 1378 Rocket 3.9 00:29:36 10° NNW 00:33:55 69° W 00:38:10 10° S
Lacrosse 5 rocket 3.9 00:31:11 10° WNW 00:34:09 18° NNW 00:37:13 10° NNE
Helios 1A Rocket 3.7 00:30:50 10° S 00:34:50 57° W 00:38:55 10° NNW
NOSS 2-2 (E) 3.2 00:32:36 10° SSW 00:35:59 51° ESE 00:39:34 10° NE
Okean 2 Rocket 4.3 00:33:28 10° SE 00:36:51 21° E 00:40:14 10° NE
Cosmos 1900 4.5 00:33:17 10° NNW 00:38:28 88° WSW 00:43:37 10° SSE
CZ-2D R/B 3.7 00:36:29 10° S 00:40:20 66° W 00:44:14 10° NNW
Cosmos 2263 Rocket 2.2 00:34:54 10° SSW 00:40:27 89° WNW 00:46:04 10° NNE
Okean-O 3.0 00:36:26 10° S 00:40:50 72° WSW 00:45:16 10° NNW
DELTA 2 R/B (1) 3.7 00:36:08 10° W 00:41:41 77° SSW 00:46:52 12° ESE
HJ-1C 3.9 00:39:27 10° SE 00:42:30 38° ENE 00:45:35 10° N
Cosmos 990 Rocket 4.3 00:37:38 10° SSW 00:42:45 71° WNW 00:47:54 10° NNE
Meteor 2-9 Rocket 4.3 00:38:10 10° S 00:44:00 76° E 00:49:49 10° NNE
NOSS 2-2 (D) 3.2 00:41:06 10° SSW 00:44:30 48° ESE 00:48:01 10° NE
CZ-2C R/B 3.1 00:40:53 10° SSE 00:45:58 67° ENE 00:51:24 10° N
Cosmos 1844 Rocket 3.8 00:43:59 10° SSE 00:47:58 20° E 00:51:57 10° NE
Cosmos 1300 Rocket 4.5 00:45:09 10° SSE 00:48:50 27° E 00:52:34 10° NNE
USA 116 3.6 00:48:32 10° N 00:52:02 82° WNW 00:55:56 10° SSW
CENTAUR R/B 4.4 00:48:07 10° NNW 00:54:14 23° NE 01:00:06 12° E
Ariane Rocket 4.0 00:50:37 11° ESE 00:54:33 27° ENE 00:58:46 10° N
YAOGAN 1 2.9 00:50:29 10° S 00:54:47 70° W 00:59:06 10° NNW
USA 186 3.2 00:54:52 18° E 00:55:38 19° ENE 00:58:00 10° NNE
GP-B 4.4 00:52:08 10° N 00:56:22 45° W 01:00:35 10° SSW
Cosmos 1943 3.2 00:53:58 10° NNW 00:59:39 75° ENE 01:05:18 10° SSE
Okean 2 3.7 00:56:41 10° NNW 01:00:51 73° W 01:04:58 10° S
Cosmos 1464 Rocket 4.1 00:56:30 10° SSE 01:02:21 49° E 01:08:15 10° NNE
Meteor 1-12 Rocket 4.5 00:58:38 10° SSE 01:04:20 50° E 01:09:57 10° NNE
CSL-04 Debris 4.3 01:02:57 10° S 01:08:20 79° WSW 01:13:44 10° NNW
Cosmos 1975 4.3 01:07:03 10° SSW 01:10:55 41° W 01:14:49 10° N
CZ-4 R/B 3.2 01:08:40 10° SSW 01:12:32 34° W 01:16:24 10° NNW
Meteor 1-21 4.3 01:07:04 10° NNW 01:12:41 82° W 01:18:16 10° S
OBJECT-B 3.2 01:14:10 11° NE 01:14:10 11° NE 01:14:25 10° NE
CSL-04 Rocket 4.0 01:12:20 10° S 01:17:42 69° WSW 01:23:10 10° NNW
Cosmos 2151 Rocket 3.9 01:13:48 10° SSE 01:17:58 41° E 01:22:10 10° NNE
Cosmos 1867 3.8 01:12:58 10° NNW 01:18:19 53° NE 01:21:22 25° ESE
Cosmos 1603 4.1 01:13:44 10° NNW 01:19:20 64° WSW 01:24:52 10° S
CZ-2C R/B 1.6 01:18:06 10° WSW 01:21:22 35° S 01:22:04 31° SSE
Cosmos 1025 Rocket 3.3 01:17:40 10° N 01:21:52 44° ENE 01:23:50 27° SE
USA 102 4.5 01:22:51 24° SSE 01:26:11 85° WSW 01:31:24 10° NNW
Cosmos 372 Rocket 4.0 01:23:18 10° SSW 01:28:33 89° NW 01:33:49 10° NNE
NOSS 2-2 (C) 4.0 01:25:40 10° SW 01:29:04 47° NW 01:32:42 10° NNE
Cosmos 1891 Rocket 4.4 01:23:48 10° S 01:29:59 89° E 01:36:06 10° N
Cosmos 1674 4.3 01:27:04 10° NNE 01:29:01 20° NE 01:29:01 20° NE
NOSS 3-2 (A) 4.5 01:24:49 10° NNW 01:32:02 46° NE 01:36:10 27° ESE
DMSP B5D2-2 4.1 01:27:11 10° NNE 01:32:23 53° E 01:37:31 10° S
Cosmos 2150 Rocket 4.0 01:27:51 10° S 01:33:06 62° ESE 01:38:28 10° NNE
BREEZE-M DEB (TANK) 3.3 01:35:23 10° NW 01:38:42 63° NNE 01:42:24 30° ESE
MOS 1 Rocket 4.3 01:38:41 10° N 01:42:53 43° WNW 01:46:57 10° SW
Cosmos 1125 Rocket 3.6 01:38:11 10° S 01:43:16 49° ESE 01:48:24 10° NNE
Cosmos 1707 3.0 01:40:23 10° NNW 01:44:12 64° W 01:46:32 22° S
SJ-6B 2.5 01:44:19 66° E 01:44:30 68° ENE 01:48:14 10° N
Abrixas rocket 4.4 01:45:45 10° NW 01:47:27 15° N 01:47:39 15° N
Resurs 01 Rocket 3.1 01:49:34 23° NE 01:49:34 23° NE 01:52:01 10° NNE
USA 234 3.1 01:45:24 10° NE 01:51:58 77° SE 01:58:31 10° SW
ISS -2.2 01:49:12 10° W 01:52:18 34° NNW 01:53:13 29° N
Cosmos 2034 Rocket 4.1 01:53:02 10° S 01:59:23 82° W 02:05:47 10° N
Nadezhda 4 Rocket 3.8 01:53:39 10° N 01:59:48 85° E 02:03:08 29° S
H-2A R/B 3.7 01:56:29 10° SSW 02:00:47 30° W 02:05:13 10° NW
Cosmos 468 4.4 01:55:48 10° NNW 02:01:08 69° ENE 02:01:53 60° ESE
In-Cosmos 22 4.3 01:59:30 10° NNW 02:04:46 66° W 02:07:58 24° S
ARGOS 4.4 02:00:24 10° SSW 02:05:23 40° W 02:10:26 10° NNW
NOSS 3-2 (C) 4.4 01:59:04 10° NNW 02:06:23 48° NE 02:08:32 40° E
CZ-2C R/B 3.3 02:06:50 10° N 02:12:16 59° WNW 02:17:45 10° SSW
Cosmos 1048 Rocket 3.9 02:09:32 10° NNW 02:14:53 86° ENE 02:15:16 77° SE
Okean 1 Rocket 4.1 02:19:54 38° N 02:19:54 38° N 02:22:42 10° N
Cosmos 1844 3.7 02:14:33 10° SSW 02:20:16 81° WNW 02:25:58 10° NNE
Resurs 1-3 4.3 02:27:33 51° NNW 02:27:33 51° NNW 02:30:54 10° NNW
ATLAS 2AS CENTAUR R/B 3.3 02:22:46 10° SSW 02:33:17 40° ENE 02:38:14 10° NE
Cosmos 1844 Rocket 3.4 02:25:59 10° SW 02:31:23 52° WNW 02:36:51 10° NNE
Cosmos 1634 Rocket 3.8 02:32:53 81° ENE 02:32:53 81° ENE 02:38:55 10° N
Ariane Rocket 4.4 02:30:49 22° SW 02:33:20 34° W 02:37:57 10° NNW
Cosmos 2285 Rocket 4.2 02:32:15 10° SSW 02:38:29 69° WNW 02:44:50 10° NNE
OBJECT-B 4.1 02:47:22 12° NW 02:47:22 12° NW 02:47:43 10° NW
SPOT 3 Rocket 4.1 02:46:18 56° WNW 02:46:18 56° WNW 02:50:46 10° NNW
CENTAUR R/B 3.1 02:38:06 10° NNW 02:46:21 73° NE 02:47:17 68° E
ATLAS 3B R/B 3.8 02:46:20 10° NNW 02:51:46 30° NE 02:51:46 30° NE
USA 238 DEB 3.9 02:47:45 10° NW 02:55:01 72° WSW 02:55:26 71° SW
USA 238 3.8 02:47:51 10° NW 02:55:07 73° WSW 02:55:31 72° SW
Cosmos 1833 Rocket 4.4 02:51:52 10° N 02:54:32 23° NNE 02:54:32 23° NNE
Cosmos 1092 Rocket 4.5 02:52:28 10° NNW 02:58:26 54° W 02:58:55 52° WSW
Cosmos 2026 Rocket 4.4 02:59:22 10° NNW 03:05:12 62° WNW 03:05:12 62° WNW
Resurs 01 Rocket 4.3 03:27:08 17° NW 03:27:08 17° NW 03:28:32 10° NW
USA 234 4.5 03:29:33 14° NNE 03:34:37 37° NNW 03:40:29 10° W
Cosmos 2082 Rocket 4.3 03:32:14 10° N 03:33:54 19° N 03:33:54 19° N
ATLAS 2AS CENTAUR R/B 4.2 04:14:38 10° WSW 04:21:51 37° NW 04:29:04 10° NNE
Lacrosse 5 4.3 08:09:35 19° ENE 08:09:35 19° ENE 08:11:07 10° NE
USA 267 4.1 07:59:55 10° NE 08:04:18 46° NE 08:04:18 46° NE
ADEOS II 3.9 08:19:58 10° NNE 08:22:11 26° NNE 08:22:11 26° NNE
IDEFIX/ARIANE 42P 3.8 08:32:45 10° NNE 08:36:52 38° ENE 08:36:52 38° ENE
USA 234 4.2 08:33:37 10° E 08:39:43 44° NNE 08:45:49 10° NW
Cosmos 2369 4.4 08:42:33 50° NE 08:42:33 50° NE 08:46:49 10° NNE
CZ-3B R/B 4.5 08:44:41 17° NNE 08:44:41 17° NNE 08:46:36 10° NE
ARIANE 5 R/B 3.7 08:39:53 10° NNE 08:43:09 39° NE 08:43:09 39° NE
CZ-2D R/B 4.4 08:46:27 10° NNW 08:47:19 14° NNW 08:47:19 14° NNW
ATLAS 5 CENTAUR R/B 4.4 08:54:03 10° N 08:54:03 10° N 08:54:15 10° N
SJ 16-02 4.5 08:56:40 10° NNE 08:58:54 14° ENE 09:01:08 10° E
Resurs 1-4 Rocket 4.5 08:59:50 10° NNW 09:00:15 11° NNW 09:00:15 11° NNW
H-2A R/B 4.2 08:59:53 10° ESE 09:03:29 26° ENE 09:07:10 10° NNE
Cosmos 2360 4.3 09:06:44 68° N 09:06:44 68° N 09:11:47 10° NNE
Meteor 1-26 Rocket 4.1 09:13:42 75° N 09:13:42 75° N 09:18:38 10° N
ASTEX 1 3.6 09:09:49 10° N 09:14:18 69° NE 09:14:18 69° NE
USA 307 4.4 09:17:10 32° NNE 09:17:10 32° NNE 09:19:50 10° NE
BREEZE-M DEB (TANK) 4.5 09:17:25 29° NE 09:17:25 29° NE 09:19:57 10° NE
BREEZE-M DEB (TANK) 4.2 09:13:55 43° SSW 09:16:16 56° SSE 09:20:31 10° ENE
CZ-2C R/B 4.2 09:13:51 10° NE 09:18:23 31° E 09:22:57 10° SSE
Cosmos 1697 Rocket 3.3 09:19:35 44° NNW 09:19:35 44° NNW 09:24:03 10° NNE
USA 308 4.3 09:20:08 32° N 09:20:08 32° N 09:22:56 10° NE
SL-4 R/B 4.4 09:19:51 17° SE 09:20:44 17° SE 09:23:48 10° E
Meteor 1-25 Rocket 4.4 09:16:51 10° NNW 09:21:47 60° NW 09:21:47 60° NW
Cosmos 1980 Rocket 2.0 09:22:31 81° WSW 09:22:46 85° WNW 09:28:28 10° NNE
Cosmos 2322 Rocket 4.3 09:24:17 10° SSE 09:28:42 24° E 09:33:08 10° NE
Landsat 5 4.5 09:24:58 10° SSE 09:29:19 51° ENE 09:33:41 10° N
Cosmos 1782 4.3 09:32:43 29° N 09:32:43 29° N 09:34:50 10° N
Cosmos 2263 Rocket 3.6 09:29:09 10° N 09:34:24 38° ENE 09:39:39 10° SE
SL-16 R/B 3.6 09:31:24 10° SSE 09:36:22 34° ESE 09:41:26 10° NE
Meteor 1-14 Rocket 4.1 09:34:49 10° N 09:40:27 87° W 09:45:59 10° S
CZ-2C R/B 3.5 09:37:25 10° N 09:40:05 43° N 09:40:05 43° N
Spot 4 Rocket 4.1 09:36:39 10° N 09:41:40 54° WNW 09:41:40 54° WNW
Cosmos 1515 Rocket 4.5 09:43:48 36° NW 09:43:48 36° NW 09:46:49 10° N
NOSS 3-3 (A) 3.8 09:45:00 43° SSW 09:47:01 86° SE 09:53:23 10° NE
NOSS 3-3 (C) 3.7 09:45:11 43° SSW 09:47:09 86° ESE 09:53:27 10° NE
USA 267 4.2 09:43:20 10° NE 09:49:02 33° NNW 09:51:38 25° WNW
Lacrosse 5 2.9 09:48:47 29° NW 09:49:21 30° NNW 09:53:49 10° NNE
Cosmos 1238 Rocket 3.9 09:43:03 10° N 09:49:39 74° W 09:55:37 10° S
CSL-04 DEB 4.5 09:46:18 10° SSE 09:50:33 85° ENE 09:54:55 10° NNW
Meteor 2-6 Rocket 4.2 09:48:56 20° S 09:52:52 86° E 09:58:40 10° N
BREEZE-M DEB (TANK) 4.4 09:50:54 36° WSW 09:54:24 87° NNW 10:22:18 10° ENE
Cosmos 921 Rocket 2.7 09:55:09 58° SSW 09:55:55 83° WNW 10:00:08 10° NNE
CZ-4C R/B 3.4 09:57:20 51° NW 09:57:20 51° NW 10:00:08 10° NNW
Meteor 1-5 Rocket 4.3 09:52:29 10° N 09:57:49 71° E 10:03:12 10° SSE
Cosmos 44 3.3 09:58:36 47° WNW 09:58:58 48° NW 10:03:26 10° NNE
Cosmos 2228 Rocket 3.1 10:01:20 50° WSW 10:02:04 57° W 10:06:25 10° N
Cosmos 1933 Rocket 4.5 09:59:42 10° NNW 10:02:26 31° NW 10:02:26 31° NW
ADEOS II 4.2 10:02:12 10° NW 10:03:06 11° NW 10:03:06 11° NW
IRIDIUM 114 4.4 09:59:38 10° N 10:04:53 82° E 10:10:06 10° S
Cosmos 1934 Rocket 4.2 10:04:11 10° NNW 10:09:53 44° W 10:15:35 10° SSW
Meteor 1-4 Rocket 2.3 10:09:31 31° S 10:11:03 86° E 10:14:33 10° N
X-37B 2.0 10:10:31 26° NNW 10:11:21 31° N 10:14:15 10° ENE
GENESIS II 4.2 10:11:43 43° WSW 10:12:51 66° WNW 10:16:53 10° NNE
ADEOS 4.2 10:07:57 10° NNE 10:13:06 56° E 10:18:12 10° S
IRIDIUM 103 4.2 10:08:47 10° N 10:14:01 82° W 10:19:13 10° S
Cosmos 1536 4.3 10:12:03 10° N 10:15:54 39° ENE 10:19:42 10° SSE
IDEFIX/ARIANE 42P 3.7 10:12:52 10° NNW 10:17:03 24° WNW 10:17:41 24° WNW
Cosmos 1484 Rocket 4.0 10:15:53 10° NNE 10:19:42 44° E 10:23:31 10° S
ADEOS Rocket 3.3 10:13:36 10° SSE 10:20:39 84° ENE 10:26:59 10° NNW
MSX 4.5 10:17:03 10° N 10:22:13 35° WNW 10:24:50 23° WSW
USA 234 3.3 10:16:08 10° SSE 10:22:33 60° SW 10:29:00 10° NW
Cosmos 1869 Rocket 3.4 10:18:34 10° NNW 10:22:52 64° W 10:27:07 10° S
ALOS 3.2 10:18:54 10° NNE 10:23:26 49° E 10:27:56 10° S
ARIANE 5 R/B 4.2 10:20:33 10° NNW 10:23:28 16° WNW 10:23:29 16° WNW
Meteor 1-11 Rocket 3.9 10:19:02 10° N 10:24:51 80° E 10:30:29 10° SSE
Cosmos 1153 Rocket 4.5 10:20:09 10° N 10:26:34 84° W 10:32:52 10° S
ERS-2 2.2 10:26:47 10° S 10:30:21 53° WSW 10:33:58 10° NNW
Meteor 1-31 Rocket 3.8 10:26:51 10° NNE 10:30:34 47° E 10:34:16 10° S
IRIDIUM 106 4.4 10:27:13 10° NNW 10:32:18 55° W 10:37:22 10° SSW
FALCON 9 DEB 3.4 10:31:12 21° SSW 10:33:16 62° SE 10:36:40 10° NE
Cosmos 1605 Rocket 4.3 10:27:14 10° NNW 10:33:18 47° W 10:39:21 10° SSW
Cosmos 841 Rocket 4.2 10:29:36 10° S 10:34:40 55° ESE 10:39:48 10° NNE
Meteor 1-27 Rocket 3.8 10:29:16 10° S 10:35:11 84° W 10:41:09 10° N
SJ 16-02 1.4 10:33:33 10° NNW 10:37:52 56° WSW 10:42:08 10° S
H-2A R/B 3.0 10:35:40 10° SSW 10:39:21 27° W 10:43:07 10° NW
PSLV R/B 4.2 10:35:37 10° N 10:39:25 34° WNW 10:42:14 16° SW
Cosmos 1763 Rocket 3.6 10:39:47 10° SSW 10:45:01 60° WNW 10:50:17 10° NNE
Cosmos 1570 Rocket 4.3 10:42:03 10° S 10:47:19 72° ESE 10:52:39 10° NNE
Cosmos 1812 4.0 10:47:58 17° WSW 10:49:30 21° WNW 10:52:31 10° NNW
CZ-2C R/B 3.3 10:52:03 10° N 10:56:30 31° WNW 11:01:01 10° SW
Cosmos 2360 Rocket 2.5 10:51:06 10° SSW 10:56:43 71° ESE 11:02:22 10° NNE
ERBS 3.6 10:54:41 15° W 10:56:45 25° NW 10:59:37 10° NNE
CZ-4B R/B 1.6 10:55:56 10° S 10:58:51 39° W 11:01:53 10° NNW
SL-4 R/B 2.3 10:55:28 11° SW 10:59:54 81° NW 11:04:44 10° NE
SL-8 R/B 3.7 10:56:56 10° WNW 11:01:44 90° ENE 11:06:31 10° ESE
COSMO-SKYMED 1 3.2 10:58:18 10° SSE 11:02:34 61° ENE 11:06:51 10° N
Cosmos 1666 3.3 11:00:07 10° NNW 11:03:34 33° W 11:07:00 10° SSW
DEBRIS 3.3 11:04:24 10° WNW 11:07:10 59° SSW 11:14:50 10° SE
Cosmos 1980 Rocket 4.0 11:04:47 10° WNW 11:07:37 14° NW 11:10:28 10° NNW
Cosmos 2100 Rocket 4.1 11:01:58 10° NNW 11:08:16 63° W 11:14:31 10° S
METEOR-M 4.1 11:03:18 10° N 11:08:38 72° WNW 11:13:57 10° SSW
Cosmos 990 Rocket 4.3 11:05:06 10° NNW 11:10:00 43° WSW 11:14:54 10° S
Cosmos 1802 Rocket 4.0 11:04:49 10° N 11:11:02 81° W 11:17:16 10° S
Cosmos 2322 Rocket 2.6 11:06:57 10° SW 11:12:23 46° WNW 11:17:52 10° NNE
Gbstr 26 Del rocket 4.4 11:04:27 10° NW 11:12:26 87° NE 11:19:13 10° SE
FENGYUN 3A 3.8 11:07:41 10° N 11:12:57 55° WNW 11:18:12 10° SSW
Cosmos 44 Rocket 3.2 11:10:03 10° SSW 11:14:44 83° WNW 11:19:35 10° NNE
Cosmos 540 Rocket 3.6 11:12:23 10° SSW 11:17:28 59° WNW 11:22:35 10° NNE
Cosmos 2237 4.2 11:12:18 10° SSW 11:17:59 71° WNW 11:23:43 10° NNE
Cosmos 2263 Rocket 3.0 11:13:19 10° NW 11:18:09 30° WSW 11:22:59 10° SSW
SL-16 R/B 3.0 11:15:21 10° WSW 11:20:25 33° WNW 11:25:32 10° N
H-2A R/B 3.9 11:16:52 10° NNE 11:21:02 46° E 11:25:17 10° S
